Location: Akdamlar
(36.8729°N, 30.5187°E)
Time: 21:03:37
(UTC+00:00)

Okean 2 - Pass Details

Date: 18 September 2020
Orbit: 559 x 577 km, 82.5° (Epoch: 24 October)

Event Time Altitude Azimuth Distance (km) Brightness Sun altitude
Rises 16:54:36 0° 352° (N) 2,796 7.2 -11.6°
Reaches altitude 10° 16:56:48 10° 351° (N) 1,892 6.3 -12.0°
Maximum altitude 17:00:59 83° 265° (W) 584 3.5 -12.8°
Drops below altitude 10° 17:05:06 10° 177° (S) 1,870 5.9 -13.6°
Sets 17:07:16 0° 176° (S) 2,760 6.7 -14.1°
